Precipitable_Water
0.97 0.99 1.01 1.02 1.02 1.03 1.04 1.04 1.05 1.08 1.09 1.08 1.05 1.02 0.98 0.98 0.91 0.79 0.62 0.72 0.68 0.76 0.74 0.64 0.57 0.50 0.49 0.41 0.42 0.41 0.27 0.23 0.25 0.22 0.30 0.42 0.42 0.59 0.78 0.75 0.82 0.88 0.82 0.91 1.14
1.03 1.04 1.06 1.06 1.07 1.07 1.08 1.07 1.08 1.10 1.09 1.07 1.06 1.03 1.00 0.97 0.81 0.68 0.81 0.82 0.83 0.81 0.68 0.55 0.46 0.46 0.43 0.40 0.39 0.35 0.27 0.26 0.33 0.33 0.31 0.42 0.44 0.53 0.61 0.66 0.69 0.78 0.93 1.01 1.11
1.06 1.07 1.10 1.11 1.12 1.09 1.10 1.12 1.13 1.12 1.09 1.06 1.04 1.02 1.00 1.00 0.69 0.67 0.86 0.85 0.84 0.81 0.71 0.61 0.53 0.46 0.38 0.42 0.39 0.36 0.27 0.34 0.36 0.38 0.37 0.37 0.44 0.57 0.58 0.59 0.66 0.65 0.79 0.92 1.02
1.08 1.08 1.09 1.10 1.11 1.10 1.07 1.09 1.10 1.08 1.06 1.06 1.05 1.02 1.04 0.93 0.48 0.81 0.96 0.91 0.87 0.86 0.73 0.64 0.54 0.41 0.37 0.35 0.42 0.33 0.36 0.36 0.38 0.41 0.40 0.36 0.43 0.47 0.56 0.60 0.74 0.80 0.87 0.90 0.90
1.08 1.08 1.07 1.08 1.08 1.05 1.03 1.04 1.02 0.98 0.98 0.98 0.97 0.97 0.94 0.69 0.63 0.87 0.93 0.90 0.91 0.83 0.70 0.62 0.52 0.43 0.35 0.38 0.39 0.36 0.35 0.38 0.39 0.41 0.42 0.41 0.38 0.43 0.48 0.64 0.73 0.82 0.85 0.84 0.89
1.04 1.00 1.00 1.00 1.01 1.01 0.99 0.96 0.97 0.96 0.94 0.90 0.92 0.92 0.79 0.52 0.83 0.93 0.92 0.89 0.85 0.77 0.66 0.67 0.58 0.55 0.43 0.38 0.38 0.41 0.41 0.38 0.38 0.38 0.40 0.38 0.40 0.44 0.47 0.63 0.64 0.69 0.72 0.80 0.83
1.24 1.24 1.18 1.09 1.01 1.00 0.95 0.89 0.90 0.87 0.86 0.86 0.87 0.87 0.66 0.54 0.80 0.84 0.84 0.78 0.80 0.75 0.65 0.69 0.70 0.57 0.48 0.38 0.44 0.41 0.37 0.41 0.41 0.37 0.35 0.40 0.38 0.38 0.51 0.62 0.59 0.65 0.69 0.76 0.81
1.10 1.11 1.10 1.11 1.14 1.09 1.05 1.01 0.94 0.90 0.87 0.85 0.90 0.84 0.56 0.79 0.88 0.75 0.79 0.69 0.80 0.80 0.73 0.73 0.73 0.64 0.56 0.52 0.46 0.40 0.41 0.30 0.39 0.44 0.42 0.37 0.28 0.39 0.57 0.59 0.59 0.65 0.71 0.74 0.77
1.00 0.97 0.94 0.93 0.95 0.99 1.00 0.99 0.95 0.92 0.92 0.91 0.82 0.78 0.62 0.96 0.83 0.91 0.95 0.74 0.78 0.80 0.76 0.76 0.73 0.60 0.57 0.45 0.40 0.41 0.32 0.36 0.38 0.49 0.46 0.42 0.34 0.41 0.56 0.56 0.56 0.63 0.68 0.71 0.74
1.06 1.06 1.03 0.99 0.91 0.88 0.91 0.89 0.89 0.98 1.02 1.01 0.98 0.71 0.72 0.67 0.85 0.92 0.95 0.89 0.73 0.72 0.61 0.62 0.59 0.50 0.48 0.46 0.32 0.36 0.38 0.41 0.40 0.46 0.47 0.43 0.42 0.45 0.50 0.54 0.52 0.58 0.65 0.67 0.70
1.05 1.07 1.06 1.03 1.06 0.99 0.94 0.82 0.71 0.66 0.78 0.66 0.71 0.71 0.73 0.87 0.96 0.83 0.96 0.89 0.84 0.70 0.52 0.55 0.48 0.40 0.43 0.48 0.48 0.46 0.43 0.41 0.45 0.49 0.45 0.43 0.43 0.45 0.48 0.53 0.54 0.58 0.61 0.64 0.65
0.93 0.89 0.90 0.85 0.86 0.89 0.95 0.80 0.85 0.89 0.63 0.77 0.72 0.67 0.70 0.71 0.60 0.69 0.80 0.71 0.72 0.57 0.59 0.51 0.40 0.49 0.52 0.51 0.49 0.48 0.44 0.43 0.47 0.50 0.47 0.44 0.42 0.46 0.48 0.49 0.52 0.53 0.57 0.60 0.65
0.79 0.78 0.78 0.71 0.68 0.74 0.73 0.84 1.00 1.02 0.58 0.55 0.65 0.61 0.60 0.58 0.48 0.56 0.68 0.68 0.67 0.60 0.56 0.47 0.50 0.58 0.53 0.50 0.48 0.47 0.43 0.43 0.42 0.47 0.49 0.44 0.38 0.41 0.45 0.48 0.51 0.55 0.57 0.60 0.61
0.81 0.82 0.79 0.71 0.60 0.73 0.66 0.85 0.90 0.94 0.40 0.40 0.48 0.55 0.58 0.57 0.47 0.57 0.61 0.54 0.61 0.57 0.63 0.58 0.61 0.57 0.56 0.51 0.53 0.43 0.54 0.51 0.48 0.43 0.33 0.45 0.27 0.36 0.41 0.41 0.43 0.45 0.51 0.54 0.58
0.71 0.72 0.75 0.72 0.59 0.57 0.75 0.80 0.89 0.68 0.25 0.42 0.42 0.62 0.58 0.49 0.47 0.55 0.67 0.57 0.44 0.56 0.65 0.55 0.59 0.60 0.55 0.54 0.60 0.50 0.61 0.55 0.52 0.46 0.42 0.40 0.33 0.31 0.37 0.35 0.38 0.43 0.47 0.52 0.56
0.54 0.56 0.62 0.63 0.70 0.70 0.80 0.77 0.76 0.38 0.26 0.36 0.41 0.42 0.42 0.48 0.48 0.52 0.56 0.59 0.54 0.44 0.55 0.60 0.74 0.68 0.65 0.68 0.66 0.65 0.58 0.55 0.51 0.46 0.31 0.39 0.37 0.29 0.35 0.37 0.38 0.42 0.45 0.49 0.53
0.45 0.48 0.51 0.54 0.47 0.74 0.72 0.68 0.35 0.28 0.38 0.33 0.35 0.40 0.39 0.40 0.43 0.45 0.48 0.50 0.46 0.38 0.35 0.42 0.45 0.56 0.65 0.59 0.66 0.61 0.52 0.38 0.32 0.30 0.25 0.38 0.34 0.33 0.41 0.44 0.44 0.43 0.45 0.48 0.52
0.44 0.42 0.39 0.41 0.46 0.53 0.58 0.40 0.22 0.27 0.30 0.37 0.35 0.36 0.34 0.39 0.42 0.44 0.44 0.46 0.55 0.54 0.45 0.39 0.35 0.49 0.57 0.49 0.44 0.45 0.43 0.33 0.25 0.25 0.27 0.37 0.26 0.31 0.41 0.45 0.46 0.47 0.48 0.49 0.50
0.44 0.38 0.33 0.34 0.39 0.42 0.39 0.21 0.18 0.22 0.29 0.30 0.33 0.30 0.34 0.40 0.39 0.41 0.46 0.48 0.52 0.53 0.43 0.42 0.41 0.59 0.60 0.58 0.57 0.48 0.43 0.51 0.41 0.41 0.34 0.33 0.33 0.39 0.43 0.44 0.46 0.46 0.47 0.47 0.49
0.37 0.32 0.28 0.41 0.42 0.36 0.24 0.17 0.21 0.28 0.32 0.32 0.24 0.32 0.29 0.36 0.38 0.40 0.39 0.52 0.52 0.56 0.56 0.48 0.35 0.50 0.55 0.55 0.56 0.53 0.54 0.40 0.44 0.29 0.26 0.28 0.29 0.29 0.36 0.39 0.43 0.45 0.46 0.48 0.52
0.37 0.25 0.36 0.54 0.47 0.29 0.15 0.17 0.22 0.28 0.31 0.26 0.25 0.27 0.31 0.34 0.38 0.37 0.38 0.44 0.50 0.47 0.50 0.48 0.42 0.38 0.42 0.41 0.42 0.44 0.43 0.46 0.45 0.42 0.31 0.25 0.28 0.41 0.40 0.43 0.44 0.45 0.47 0.50 0.50
0.34 0.19 0.42 0.57 0.24 0.25 0.18 0.22 0.27 0.25 0.28 0.28 0.29 0.26 0.26 0.32 0.31 0.31 0.32 0.35 0.43 0.42 0.36 0.41 0.37 0.29 0.32 0.39 0.44 0.45 0.44 0.47 0.35 0.33 0.36 0.34 0.27 0.46 0.47 0.47 0.47 0.45 0.47 0.50 0.52
0.26 0.25 0.43 0.51 0.18 0.18 0.23 0.23 0.25 0.25 0.25 0.26 0.24 0.27 0.26 0.23 0.22 0.26 0.28 0.39 0.42 0.41 0.40 0.42 0.33 0.26 0.25 0.35 0.48 0.44 0.46 0.44 0.43 0.39 0.31 0.28 0.25 0.45 0.44 0.44 0.44 0.43 0.48 0.51 0.51
0.27 0.17 0.25 0.36 0.36 0.26 0.22 0.21 0.20 0.27 0.26 0.29 0.25 0.26 0.23 0.21 0.24 0.21 0.23 0.30 0.34 0.34 0.40 0.41 0.35 0.30 0.23 0.27 0.31 0.29 0.32 0.35 0.35 0.28 0.29 0.30 0.29 0.32 0.39 0.38 0.36 0.39 0.44 0.51 0.52
0.26 0.23 0.27 0.17 0.22 0.29 0.30 0.28 0.25 0.24 0.30 0.30 0.26 0.25 0.25 0.22 0.22 0.20 0.22 0.26 0.29 0.31 0.33 0.32 0.25 0.28 0.29 0.31 0.32 0.30 0.31 0.30 0.28 0.30 0.28 0.28 0.32 0.32 0.35 0.35 0.34 0.35 0.38 0.42 0.48
0.21 0.21 0.28 0.24 0.26 0.24 0.28 0.28 0.26 0.31 0.32 0.29 0.29 0.31 0.30 0.24 0.25 0.22 0.25 0.25 0.23 0.28 0.26 0.29 0.20 0.24 0.20 0.23 0.25 0.23 0.23 0.23 0.25 0.25 0.24 0.24 0.24 0.25 0.24 0.27 0.31 0.33 0.38 0.39 0.42
0.31 0.33 0.25 0.21 0.22 0.21 0.22 0.24 0.28 0.32 0.32 0.34 0.32 0.29 0.26 0.28 0.31 0.31 0.31 0.30 0.28 0.25 0.24 0.24 0.20 0.18 0.13 0.16 0.19 0.16 0.14 0.17 0.16 0.17 0.17 0.15 0.17 0.20 0.22 0.25 0.29 0.35 0.38 0.39 0.43
Wind_Speed
24 23 23 23 23 22 23 23 23 24 24 23 23 23 24 23 23 19 18 17 16 17 17 17 16 16 15 15 14 14 13 14 15 15 17 16 16 16 18 19 18 19 15 13 14
24 24 24 23 23 24 24 24 25 25 25 25 25 25 25 24 23 22 19 18 18 18 17 17 18 17 16 16 16 15 15 16 16 17 20 20 18 18 17 19 20 19 17 14 16
25 25 25 25 26 26 26 26 27 27 27 26 26 26 26 25 22 20 20 19 19 19 19 19 18 17 17 17 18 18 18 17 18 18 18 21 19 18 17 21 23 22 21 18 17
26 26 27 27 27 27 28 28 28 28 28 28 28 28 28 24 21 20 21 22 23 22 21 20 20 19 19 19 20 21 22 21 21 20 21 20 20 21 22 21 21 22 22 21 20
27 27 27 28 28 29 29 29 28 29 29 29 28 29 26 25 25 29 28 25 25 24 23 22 21 20 20 20 22 23 23 24 23 25 24 22 22 23 24 22 20 21 23 24 23
28 29 29 29 30 30 30 30 30 30 30 30 29 29 26 27 25 25 25 26 27 27 26 24 23 23 23 22 22 23 24 26 26 26 25 25 23 23 23 22 22 23 25 26 25
29 30 30 30 30 31 31 31 32 32 32 32 31 30 30 30 31 31 30 30 29 29 28 27 26 24 22 23 22 23 24 24 24 24 27 24 26 26 24 23 24 26 26 26 27
28 28 29 31 31 32 32 33 34 34 34 33 31 31 32 29 31 32 31 30 30 30 29 29 27 25 23 23 23 23 23 21 20 19 21 23 28 27 26 26 27 28 28 28 29
28 28 27 29 30 31 32 33 34 34 34 32 31 30 31 26 24 24 23 23 23 22 23 22 23 24 21 19 21 20 22 24 23 22 23 24 26 25 25 28 29 30 30 30 30
31 31 31 31 31 32 33 34 33 31 29 30 31 29 28 21 21 21 24 23 23 22 20 20 21 21 20 18 21 20 21 22 22 18 19 24 28 29 29 29 31 31 30 31 31
34 34 35 35 36 36 34 31 30 30 29 30 31 32 31 28 28 24 22 23 23 23 21 21 21 23 21 22 22 20 21 23 24 25 25 28 30 30 27 28 27 28 29 31 33
31 31 31 31 31 32 30 28 28 32 35 35 39 41 40 35 34 32 28 24 23 24 21 22 25 24 22 23 23 22 22 23 23 23 22 27 30 29 26 28 29 28 28 30 30
31 32 32 31 30 27 27 26 29 30 33 34 32 34 34 34 38 36 29 27 27 26 26 27 22 20 24 22 22 22 22 21 22 23 23 25 27 25 25 25 27 28 27 27 29
32 31 31 31 29 28 27 28 29 29 29 31 27 26 26 28 31 32 34 32 30 31 25 28 27 27 24 23 21 23 21 22 21 20 20 18 25 26 24 26 25 27 26 26 27
31 32 31 31 30 29 29 30 30 27 25 24 25 24 24 24 25 21 24 32 37 29 26 28 23 23 28 29 26 25 22 21 21 23 23 22 23 22 20 23 24 25 26 28 29
29 30 30 29 29 30 31 31 27 23 29 25 24 24 23 23 24 23 20 22 26 34 37 35 28 26 24 22 22 22 23 24 25 24 29 24 24 26 24 24 22 22 25 26 27
29 30 29 30 28 28 28 25 24 26 26 24 25 25 25 24 22 21 21 20 21 23 27 30 38 38 35 34 33 28 24 24 24 22 30 22 26 29 26 25 23 22 22 23 24
29 30 30 29 30 28 25 23 26 27 29 26 24 26 22 21 22 23 21 21 20 23 22 22 22 23 26 31 30 30 31 29 28 25 28 25 28 25 22 21 21 23 25 26 27
30 30 29 28 28 26 25 25 26 24 26 25 24 23 22 23 21 21 20 21 20 20 21 22 24 21 19 22 22 22 23 29 29 33 30 29 34 35 35 31 29 27 27 28 28
29 29 28 28 26 25 27 32 27 27 24 24 23 22 22 22 22 21 23 20 20 21 21 22 26 23 22 23 21 21 23 21 21 22 24 26 27 27 23 25 26 27 28 28 29
27 26 26 26 26 26 28 29 29 30 26 26 25 24 24 24 23 23 24 24 21 21 20 22 24 26 24 22 24 24 23 23 23 24 22 24 24 20 17 18 21 24 26 27 27
25 24 25 24 24 27 28 27 29 28 26 29 28 27 26 25 27 27 28 29 26 26 26 25 26 27 28 31 30 29 25 23 23 19 23 28 33 28 25 28 30 32 30 28 27
23 24 23 24 24 27 28 29 30 29 29 28 28 27 26 26 27 27 27 23 24 24 22 22 23 26 28 23 19 21 20 21 21 23 26 26 30 28 33 34 34 33 33 33 33
21 21 23 23 25 25 26 28 29 29 32 32 31 31 30 29 29 29 27 27 27 28 28 28 28 28 30 29 27 31 30 29 28 28 31 34 42 42 36 37 38 37 35 36 35
21 21 21 21 24 24 24 26 26 27 29 27 29 30 27 27 28 29 29 27 28 28 25 25 29 30 32 32 32 34 34 35 35 36 33 38 35 42 41 43 41 40 39 38 38
19 19 20 21 22 21 22 20 20 17 19 21 22 22 25 26 27 26 25 25 26 26 25 26 28 26 32 32 31 34 39 41 37 39 41 43 43 44 48 46 44 43 42 43 40
19 19 18 19 18 17 18 18 16 16 17 17 18 20 20 20 23 25 26 27 27 27 27 27 26 25 33 33 29 33 39 37 39 40 38 40 43 43 44 44 44 42 43 44 42
Wind_Direction
267 270 271 272 274 275 277 279 281 284 286 288 290 291 291 292 289 284 277 272 273 280 282 285 284 286 275 266 262 256 258 254 252 244 245 251 254 249 245 231 236 233 246 253 224
267 268 270 271 273 275 278 280 282 284 285 286 288 290 290 291 284 280 271 272 275 280 281 285 284 283 275 269 262 255 255 253 254 253 253 257 253 245 241 241 241 239 244 235 226
266 268 270 272 274 275 276 279 281 282 284 285 286 288 289 288 282 270 273 272 273 278 279 278 278 277 273 270 263 257 254 255 257 258 260 258 255 248 242 246 241 239 234 233 228
266 267 270 272 274 275 276 278 280 281 282 283 284 287 288 280 275 270 274 273 273 276 277 278 278 276 271 269 266 265 259 256 259 261 265 259 253 250 244 248 247 238 232 231 231
266 268 270 272 274 275 276 278 278 279 281 282 283 286 282 275 272 275 275 272 271 273 273 274 274 272 269 270 271 264 263 259 258 263 259 259 254 251 250 251 246 235 235 233 234
266 268 270 272 273 275 276 277 278 279 279 281 282 283 277 275 275 274 274 272 270 271 268 268 267 269 269 267 265 267 266 265 262 258 258 256 255 251 252 247 244 238 237 236 236
267 268 270 271 273 275 276 276 277 278 279 279 279 278 274 271 275 276 273 271 271 267 265 265 265 263 266 270 266 268 271 268 261 258 254 250 254 251 250 247 243 242 240 239 240
268 269 270 270 272 274 275 276 276 277 276 276 276 276 273 276 277 274 272 272 270 266 262 262 258 260 260 264 270 269 268 267 261 260 259 249 256 255 248 246 246 244 243 243 244
268 270 273 273 275 277 276 276 276 276 273 272 273 273 276 276 272 271 267 269 269 265 260 259 253 254 258 261 269 264 263 263 267 258 257 252 258 257 251 251 249 247 246 245 245
267 270 272 273 276 278 279 278 275 273 272 269 269 273 271 271 269 273 267 268 267 265 260 256 253 252 256 254 259 260 263 264 262 259 259 260 260 261 256 253 252 251 250 247 246
268 270 271 274 274 277 279 274 273 272 271 267 267 267 271 272 271 268 270 267 261 256 254 254 250 248 248 249 258 263 265 267 266 266 266 261 261 263 258 254 255 252 250 248 248
267 270 274 276 276 276 273 271 273 273 274 269 267 266 265 268 267 263 261 258 254 251 254 256 252 252 251 252 255 260 265 267 270 265 260 265 263 262 256 256 252 250 250 248 247
268 271 271 274 275 272 272 272 278 278 274 274 269 268 267 258 261 260 255 255 251 250 249 249 254 249 247 250 252 258 259 267 265 271 266 271 267 259 258 259 256 254 254 252 247
266 269 270 272 267 272 268 274 281 278 276 276 271 268 267 264 268 260 249 247 249 247 251 254 251 253 251 249 247 258 255 262 269 273 267 267 273 264 260 259 257 256 253 251 248
267 267 268 266 264 264 269 276 277 274 276 273 272 272 270 261 272 264 256 246 247 247 243 251 250 247 247 249 250 258 259 260 265 269 274 263 268 268 262 260 262 261 257 254 252
268 269 268 265 264 265 271 268 266 267 262 267 268 275 278 264 265 267 262 253 252 247 250 251 253 251 250 251 246 256 264 265 265 264 263 260 260 270 263 263 266 264 260 258 255
269 270 269 267 264 268 271 264 261 255 269 265 269 272 275 269 269 269 261 261 259 254 251 253 252 253 254 258 258 254 260 266 266 256 262 259 260 261 267 267 266 267 263 264 263
270 270 267 264 263 263 263 259 256 262 262 267 270 273 263 270 267 268 259 256 265 261 257 257 255 255 257 249 253 252 250 250 256 258 266 262 259 258 268 276 271 275 276 273 269
271 269 267 263 261 255 253 253 258 261 262 270 268 264 260 263 266 266 265 265 262 268 259 263 255 258 254 258 255 254 248 250 257 262 264 258 263 270 271 276 282 283 280 279 271
270 269 265 262 256 251 251 254 256 259 266 269 266 267 265 267 263 267 263 264 262 265 265 260 260 257 259 260 255 256 261 253 250 256 257 262 264 264 278 281 286 290 290 285 278
269 267 263 260 251 251 254 258 260 260 263 264 265 261 260 263 258 257 256 260 260 261 260 262 259 258 264 256 263 264 261 257 259 251 258 266 263 261 268 278 286 288 291 289 283
266 265 264 254 254 255 257 259 262 261 261 261 261 260 260 255 257 253 252 250 259 261 264 261 258 259 259 263 262 259 257 259 254 257 258 259 259 256 275 284 285 288 287 286 285
263 263 261 253 257 257 262 263 260 262 260 260 259 258 259 258 262 256 255 254 260 259 258 263 257 265 268 262 257 254 252 254 256 258 255 259 261 262 282 285 287 287 283 283 283
264 265 263 259 262 261 261 263 261 261 258 258 259 259 259 259 256 258 259 258 261 257 261 256 258 257 259 261 265 264 264 262 259 258 263 259 270 271 275 281 283 284 284 281 281
263 263 262 267 263 264 267 266 261 259 259 260 260 255 254 257 260 256 257 256 260 261 258 259 258 258 261 263 265 265 263 261 260 263 261 269 268 271 274 277 279 280 281 281 278
261 262 266 266 266 261 260 264 264 261 256 253 252 251 251 252 251 257 258 258 256 258 259 263 261 262 263 264 263 264 263 263 263 262 265 267 270 270 273 274 275 277 277 276 277
260 262 263 266 265 261 258 255 255 260 256 252 258 258 257 257 259 258 258 258 258 258 259 261 262 264 265 268 267 264 262 265 265 265 268 268 270 273 273 272 273 276 273 274 275